N5VKM Weather Reports


Display with metric or nautical units.
time (UTC)temp
F
wind
direction
speed
MPH
gust
MPH
rain 1hr
in
rain 24hr
in
rain mn
in
humidity
%
barometer
mb
20260903030539 87 333 0.0 0.0 0.00 0.00 0.00 62 1014.0
20260903030045 87 332 0.0 0.0 0.00 0.00 0.00 62 1013.8
20260903025559 87 331 0.0 0.0 0.00 0.00 0.00 61 1013.8
20260903025046 88 332 0.0 0.0 0.00 0.00 0.00 61 1013.7
20260903024537 88 333 0.0 0.0 0.00 0.00 0.00 60 1013.8
20260903024049 88 333 0.0 0.0 0.00 0.00 0.00 60 1013.7
20260903023536 88 333 0.0 0.0 0.00 0.00 0.00 59 1013.7
20260903023044 88 332 0.0 0.0 0.00 0.00 0.00 59 1013.5
20260903022541 88 332 0.0 0.0 0.00 0.00 0.00 59 1013.3
20260903022049 88 332 0.0 0.0 0.00 0.00 0.00 59 1013.2
20260903021604 89 331 0.0 0.0 0.00 0.00 0.00 58 1013.1
20260903021037 89 332 0.0 0.0 0.00 0.00 0.00 58 1013.1
20260903020532 89 331 0.0 0.0 0.00 0.00 0.00 58 1013.0
20260903020043 89 331 0.0 0.0 0.00 0.00 0.00 58 1012.9
20260903015530 89 333 0.0 0.0 0.00 0.00 0.00 57 1012.8
20260903015041 89 332 0.0 0.0 0.00 0.00 0.00 57 1012.8
20260903014549 90 331 0.0 0.0 0.00 0.00 0.00 57 1012.7
20260903014057 90 332 0.0 0.0 0.00 0.00 0.00 57 1012.7
20260903013544 90 332 0.0 0.0 0.00 0.00 0.00 56 1012.6
20260903013031 90 331 0.0 0.0 0.00 0.00 0.00 56 1012.6
20260903012545 90 331 0.0 0.0 0.00 0.00 0.00 56 1012.6
20260903012052 91 331 0.0 0.0 0.00 0.00 0.00 57 1012.6
20260903011542 91 332 0.0 0.0 0.00 0.00 0.00 57 1012.5
20260903011037 91 332 0.0 0.0 0.00 0.00 0.00 57 1012.5
20260903010548 91 332 0.0 0.0 0.00 0.00 0.00 56 1012.4
20260903010036 92 331 0.0 0.0 0.00 0.00 0.00 56 1012.3
20260903005545 92 331 0.0 0.0 0.00 0.00 0.00 56 1012.4
20260903005035 92 331 0.0 0.0 0.00 0.00 0.00 55 1012.4
20260903004529 92 331 0.0 0.0 0.00 0.00 0.00 55 1012.3
20260903004102 92 331 0.0 0.0 0.00 0.00 0.00 55 1012.3
20260903003549 92 331 0.0 0.0 0.00 0.00 0.00 54 1012.3
20260903003057 93 331 0.0 0.0 0.00 0.00 0.00 54 1012.2
20260903002607 94 330 0.0 0.0 0.00 0.00 0.00 52 1012.2
20260903002032 94 331 0.0 0.0 0.00 0.00 0.00 50 1012.1
20260903001527 94 331 0.0 0.0 0.00 0.00 0.00 49 1012.0
20260903001038 95 331 0.0 0.0 0.00 0.00 0.00 49 1012.1
20260903000546 95 331 0.0 0.0 0.00 0.00 0.00 49 1012.0
20260903000037 95 331 0.0 0.0 0.00 0.00 0.00 49 1012.0
20260902235551 95 331 0.0 0.0 0.00 0.00 0.00 49 1012.0
20260902235106 96 331 0.0 0.0 0.00 0.00 0.00 48 1012.0
20260902234537 96 331 0.0 0.0 0.00 0.00 0.00 47 1011.9
20260902234050 97 331 0.0 0.0 0.00 0.00 0.00 46 1011.9
20260902233536 97 331 0.0 0.0 0.00 0.00 0.00 46 1011.9
20260902233110 97 331 0.0 0.0 0.00 0.00 0.00 45 1011.8
20260902232541 97 330 0.0 0.0 0.00 0.00 0.00 45 1011.8
20260902232049 97 329 0.0 0.0 0.00 0.00 0.00 45 1011.8
20260902231542 97 331 0.0 0.0 0.00 0.00 0.00 45 1011.8
20260902231032 97 331 0.0 0.0 0.00 0.00 0.00 44 1011.9
20260902230539 97 331 0.0 0.0 0.00 0.00 0.00 44 1011.9
20260902230049 98 331 0.0 0.0 0.00 0.00 0.00 44 1011.9
20260902225601 98 329 0.0 0.0 0.00 0.00 0.00 43 1011.9
20260902225027 98 331 0.0 0.0 0.00 0.00 0.00 42 1011.9
20260902224538 98 330 0.0 0.0 0.00 0.00 0.00 42 1011.9
20260902224052 98 331 0.0 0.0 0.00 0.00 0.00 42 1011.9
20260902223544 98 331 0.0 0.0 0.00 0.00 0.00 42 1011.9
20260902223038 98 331 0.0 0.0 0.00 0.00 0.00 41 1011.9
20260902222531 99 329 0.0 0.0 0.00 0.00 0.00 41 1012.0
20260902222106 99 329 0.0 0.0 0.00 0.00 0.00 41 1011.9
20260902221536 99 331 0.0 0.0 0.00 0.00 0.00 41 1012.0
20260902221048 99 330 0.0 0.0 0.00 0.00 0.00 40 1012.0
20260902220545 99 336 0.0 0.0 0.00 0.00 0.00 40 1011.9
20260902220032 99 330 0.0 0.0 0.00 0.00 0.00 40 1012.1
20260902215542 99 329 0.0 0.0 0.00 0.00 0.00 41 1012.1
20260902215030 99 329 0.0 0.0 0.00 0.00 0.00 42 1012.2
20260902214603 99 328 0.0 0.0 0.00 0.00 0.00 41 1012.2
20260902214033 99 329 0.0 0.0 0.00 0.00 0.00 41 1012.2
20260902213541 98 330 0.0 0.0 0.00 0.00 0.00 42 1012.2
20260902213049 98 331 0.0 0.0 0.00 0.00 0.00 43 1012.3
20260902212535 98 329 0.0 0.0 0.00 0.00 0.00 42 1012.4
20260902212109 99 331 0.0 0.0 0.00 0.00 0.00 43 1012.4
20260902211536 98 329 0.0 0.0 0.00 0.00 0.00 44 1012.5
20260902211042 98 329 0.0 0.0 0.00 0.00 0.00 44 1012.6
20260902210540 98 331 0.0 0.0 0.00 0.00 0.00 43 1012.7
20260902210048 99 329 0.0 0.0 0.00 0.00 0.00 42 1012.7
20260902205637 99 330 0.0 0.0 0.00 0.00 0.00 43 1012.7
20260902205110 99 331 0.0 0.0 0.00 0.00 0.00 43 1012.8
20260902204601 98 332 0.0 0.0 0.00 0.00 0.00 44 1012.9
20260902204120 98 329 0.0 0.0 0.00 0.00 0.00 44 1012.9
20260902203610 98 330 0.0 0.0 0.00 0.00 0.00 44 1013.0
20260902203102 98 329 0.0 0.0 0.00 0.00 0.00 44 1013.1
20260902202617 98 329 0.0 0.0 0.00 0.00 0.00 44 1013.2
20260902202119 98 330 0.0 0.0 0.00 0.00 0.00 44 1013.2
20260902201543 98 330 0.0 0.0 0.00 0.00 0.00 45 1013.4
20260902201038 98 330 0.0 0.0 0.00 0.00 0.00 46 1013.5
20260902200608 97 332 0.0 0.0 0.00 0.00 0.00 46 1013.5
20260902200053 97 329 0.0 0.0 0.00 0.00 0.00 46 1013.6
20260902195549 97 329 0.0 0.0 0.00 0.00 0.00 46 1013.7
20260902195056 97 329 0.0 0.0 0.00 0.00 0.00 46 1013.8
20260902194544 97 330 0.0 0.0 0.00 0.00 0.00 47 1013.8
20260902194050 97 331 0.0 0.0 0.00 0.00 0.00 45 1013.9
20260902193543 97 330 0.0 0.0 0.00 0.00 0.00 46 1014.0
20260902193035 97 331 0.0 0.0 0.00 0.00 0.00 47 1014.1
20260902192542 96 329 0.0 0.0 0.00 0.00 0.00 48 1014.1
20260902192101 96 329 0.0 0.0 0.00 0.00 0.00 48 1014.2
20260902191535 97 329 0.0 0.0 0.00 0.00 0.00 47 1014.3
20260902191042 97 329 0.0 0.0 0.00 0.00 0.00 47 1014.3
20260902190534 97 329 0.0 0.0 0.00 0.00 0.00 48 1014.4
20260902190041 97 331 0.0 0.0 0.00 0.00 0.00 48 1014.4
20260902185533 98 331 0.0 0.0 0.00 0.00 0.00 47 1014.5
20260902185027 97 331 0.0 0.0 0.00 0.00 0.00 47 1014.5
20260902184558 97 328 0.0 0.0 0.00 0.00 0.00 47 1014.6
20260902184046 96 330 0.0 0.0 0.00 0.00 0.00 48 1014.8
20260902183536 96 329 0.0 0.0 0.00 0.00 0.00 48 1014.9
20260902183043 96 331 0.0 0.0 0.00 0.00 0.00 49 1015.0
20260902182530 96 331 0.0 0.0 0.00 0.00 0.00 49 1015.0
20260902182038 96 331 0.0 0.0 0.00 0.00 0.00 50 1015.1
20260902181547 96 331 0.0 0.0 0.00 0.00 0.00 50 1015.3
20260902181037 95 331 0.0 0.0 0.00 0.00 0.00 50 1015.4
20260902180530 95 336 0.0 0.0 0.00 0.00 0.00 51 1015.4
20260902180041 95 336 0.0 0.0 0.00 0.00 0.00 50 1015.6
20260902175531 95 329 0.0 0.0 0.00 0.00 0.00 52 1015.7
20260902175058 94 331 0.0 0.0 0.00 0.00 0.00 52 1015.8
20260902174528 94 330 0.0 0.0 0.00 0.00 0.00 51 1015.8
20260902174046 94 329 0.0 0.0 0.00 0.00 0.00 52 1016.0
20260902173533 94 332 0.0 0.0 0.00 0.00 0.00 53 1016.0
20260902173043 93 330 0.0 0.0 0.00 0.00 0.00 54 1016.0
20260902172530 93 332 0.0 0.0 0.00 0.00 0.00 53 1016.1
20260902172038 93 330 0.0 0.0 0.00 0.00 0.00 54 1016.3
20260902171528 93 332 0.0 0.0 0.00 0.00 0.00 55 1016.3
20260902171045 93 330 0.0 0.0 0.00 0.00 0.00 55 1016.4
20260902170531 92 331 0.0 0.0 0.00 0.00 0.00 58 1016.4
20260902170043 92 330 0.0 0.0 0.00 0.00 0.00 57 1016.6
20260902165533 92 332 0.0 0.0 0.00 0.00 0.00 58 1016.7
20260902165030 91 330 0.0 0.0 0.00 0.00 0.00 58 1016.6
20260902164539 91 331 0.0 0.0 0.00 0.00 0.00 59 1016.7
20260902164033 91 330 0.0 0.0 0.00 0.00 0.00 59 1016.7
20260902163545 91 331 0.0 0.0 0.00 0.00 0.00 59 1016.8
20260902163033 91 331 0.0 0.0 0.00 0.00 0.00 60 1016.9
20260902162544 91 330 0.0 0.0 0.00 0.00 0.00 61 1016.9
20260902162030 91 330 0.0 0.0 0.00 0.00 0.00 61 1017.0
20260902161544 90 332 0.0 0.0 0.00 0.00 0.00 61 1017.0
20260902161037 90 330 0.0 0.0 0.00 0.00 0.00 61 1017.0
20260902160546 90 331 0.0 0.0 0.00 0.00 0.00 61 1017.0
20260902160036 90 332 0.0 0.0 0.00 0.00 0.00 63 1017.1
20260902155547 89 332 0.0 0.0 0.00 0.00 0.00 63 1017.1
20260902155034 89 330 0.0 0.0 0.00 0.00 0.00 63 1017.1
20260902154545 88 331 0.0 0.0 0.00 0.00 0.00 64 1017.0
20260902154034 88 331 0.0 0.0 0.00 0.00 0.00 65 1017.0
20260902153546 88 330 0.0 0.0 0.00 0.00 0.00 66 1017.0
20260902153033 88 331 0.0 0.0 0.00 0.00 0.00 66 1016.9
20260902152530 88 331 0.0 0.0 0.00 0.00 0.00 66 1016.8
20260902152059 88 331 0.0 0.0 0.00 0.00 0.00 67 1016.8
20260902151545 88 332 0.0 0.0 0.00 0.00 0.00 67 1016.8
20260902151043 87 331 0.0 0.0 0.00 0.00 0.00 68 1016.8
20260902150530 87 332 0.0 0.0 0.00 0.00 0.00 68 1016.7
20260902150106 87 332 0.0 0.0 0.00 0.00 0.00 69 1016.7
20260902145542 87 331 0.0 0.0 0.00 0.00 0.00 69 1016.7
20260902145033 86 331 0.0 0.0 0.00 0.00 0.00 70 1016.7
20260902144544 86 333 0.0 0.0 0.00 0.00 0.00 71 1016.7
20260902144055 85 334 0.0 0.0 0.00 0.00 0.00 71 1016.7
20260902143605 85 333 0.0 0.0 0.00 0.00 0.00 71 1016.7
20260902143040 85 333 0.0 0.0 0.00 0.00 0.00 72 1016.7
20260902142530 84 333 0.0 0.0 0.00 0.00 0.00 72 1016.7
20260902142037 84 333 0.0 0.0 0.00 0.00 0.00 72 1016.7
20260902141549 84 333 0.0 0.0 0.00 0.00 0.00 72 1016.7
20260902141036 84 331 0.0 0.0 0.00 0.00 0.00 72 1016.7
20260902140527 84 333 0.0 0.0 0.00 0.00 0.00 72 1016.6
20260902140109 83 333 0.0 0.0 0.00 0.00 0.00 73 1016.7
20260902135536 83 333 0.0 0.0 0.00 0.00 0.00 73 1016.7
20260902135046 83 332 0.0 0.0 0.00 0.00 0.00 73 1016.7
20260902134534 83 332 0.0 0.0 0.00 0.00 0.00 74 1016.7
20260902134041 82 333 0.0 0.0 0.00 0.00 0.00 74 1016.7
20260902133534 82 331 0.0 0.0 0.00 0.00 0.00 75 1016.7
20260902133027 82 333 0.0 0.0 0.00 0.00 0.00 75 1016.7
20260902132539 82 334 0.0 0.0 0.00 0.00 0.00 75 1016.7
20260902132109 81 333 0.0 0.0 0.00 0.00 0.00 76 1016.6
20260902131536 81 333 0.0 0.0 0.00 0.00 0.00 76 1016.6
20260902131043 80 332 0.0 0.0 0.00 0.00 0.00 77 1016.4
20260902130554 80 332 0.0 0.0 0.00 0.00 0.00 77 1016.4
20260902130039 79 331 0.0 0.0 0.00 0.00 0.00 78 1016.3
20260902125551 79 333 0.0 0.0 0.00 0.00 0.00 78 1016.3
20260902125040 79 332 0.0 0.0 0.00 0.00 0.00 79 1016.3
20260902124533 78 333 0.0 0.0 0.00 0.00 0.00 79 1016.3
20260902124040 78 333 0.0 0.0 0.00 0.00 0.00 80 1016.3
20260902123532 78 333 0.0 0.0 0.00 0.00 0.00 80 1016.2
20260902123046 77 333 0.0 0.0 0.00 0.00 0.00 80 1016.2
20260902122539 77 333 0.0 0.0 0.00 0.00 0.00 80 1016.1
20260902122046 77 333 0.0 0.0 0.00 0.00 0.00 80 1016.1
20260902121542 77 333 0.0 0.0 0.00 0.00 0.00 80 1016.1
20260902121030 77 333 0.0 0.0 0.00 0.00 0.00 80 1016.1
20260902120542 77 333 0.0 0.0 0.00 0.00 0.00 80 1016.0
20260902120028 77 333 0.0 0.0 0.00 0.00 0.00 80 1016.0
20260902115602 77 333 0.0 0.0 0.00 0.00 0.00 80 1016.0
20260902115028 77 333 0.0 0.0 0.00 0.00 0.00 80 1016.1
20260902114601 77 333 0.0 0.0 0.00 0.00 0.00 80 1016.0
20260902114033 77 333 0.0 0.0 0.00 0.00 0.00 80 1015.9
20260902113530 77 333 0.0 0.0 0.00 0.00 0.00 80 1015.9
20260902113038 77 333 0.0 0.0 0.00 0.00 0.00 80 1015.9
20260902112546 77 333 0.0 0.0 0.00 0.00 0.00 80 1015.9
20260902112038 77 333 0.0 0.0 0.00 0.00 0.00 80 1016.0
20260902111547 77 333 0.0 0.0 0.00 0.00 0.00 80 1016.0
20260902111036 78 333 0.0 0.0 0.00 0.00 0.00 79 1016.0
20260902110543 78 333 0.0 0.0 0.00 0.00 0.00 79 1016.0
20260902110031 78 333 0.0 0.0 0.00 0.00 0.00 79 1015.9
20260902105542 78 333 0.0 0.0 0.00 0.00 0.00 78 1016.0
20260902105029 78 333 0.0 0.0 0.00 0.00 0.00 78 1016.0
20260902104536 78 333 0.0 0.0 0.00 0.00 0.00 78 1016.0
20260902104044 79 333 0.0 0.0 0.00 0.00 0.00 78 1016.0
20260902103530 79 333 0.0 0.0 0.00 0.00 0.00 78 1016.0
20260902103104 79 333 0.0 0.0 0.00 0.00 0.00 78 1016.0
20260902102533 79 333 0.0 0.0 0.00 0.00 0.00 78 1016.0
20260902102040 79 333 0.0 0.0 0.00 0.00 0.00 78 1016.0
20260902101531 79 333 0.0 0.0 0.00 0.00 0.00 78 1016.0
20260902101042 79 333 0.0 0.0 0.00 0.00 0.00 78 1016.0
20260902100532 79 333 0.0 0.0 0.00 0.00 0.00 77 1016.0
20260902100026 79 333 0.0 0.0 0.00 0.00 0.00 77 1016.0
20260902095540 79 333 0.0 0.0 0.00 0.00 0.00 77 1015.9
20260902095033 79 333 0.0 0.0 0.00 0.00 0.00 77 1015.9
20260902094540 80 333 0.0 0.0 0.00 0.00 0.00 77 1015.9
20260902094030 80 333 0.0 0.0 0.00 0.00 0.00 77 1015.9
20260902093540 80 333 0.0 0.0 0.00 0.00 0.00 77 1015.8
20260902093031 80 333 0.0 0.0 0.00 0.00 0.00 77 1015.8
20260902092606 80 333 0.0 0.0 0.00 0.00 0.00 77 1015.8
20260902092039 80 333 0.0 0.0 0.00 0.00 0.00 76 1015.8
20260902091548 80 333 0.0 0.0 0.00 0.00 0.00 76 1015.8
20260902091036 80 333 0.0 0.0 0.00 0.00 0.00 76 1015.8
20260902090545 80 333 0.0 0.0 0.00 0.00 0.00 76 1015.8
20260902090056 81 333 0.0 0.0 0.00 0.00 0.00 75 1015.7
20260902085543 81 333 0.0 0.0 0.00 0.00 0.00 75 1015.8
20260902085030 81 333 0.0 0.0 0.00 0.00 0.00 75 1015.7
20260902084542 81 333 0.0 0.0 0.00 0.00 0.00 74 1015.8
20260902084033 81 333 0.0 0.0 0.00 0.00 0.00 74 1015.8
20260902083541 81 333 0.0 0.0 0.00 0.00 0.00 74 1015.8
20260902083028 81 333 0.0 0.0 0.00 0.00 0.00 74 1015.8
20260902082539 81 333 0.0 0.0 0.00 0.00 0.00 73 1015.9
20260902082047 81 333 0.0 0.0 0.00 0.00 0.00 73 1015.9
20260902081534 82 333 0.0 0.0 0.00 0.00 0.00 73 1015.9
20260902081047 82 333 0.0 0.0 0.00 0.00 0.00 73 1015.9
20260902080536 82 333 0.0 0.0 0.00 0.00 0.00 72 1015.8
20260902080046 82 333 0.0 0.0 0.00 0.00 0.00 72 1015.8
20260902075537 82 333 0.0 0.0 0.00 0.00 0.00 72 1015.7
20260902075106 82 333 0.0 0.0 0.00 0.00 0.00 72 1015.7
20260902074553 83 333 0.0 0.0 0.00 0.00 0.00 71 1015.8
20260902074107 83 333 0.0 0.0 0.00 0.00 0.00 71 1015.8
20260902073543 83 333 0.0 0.0 0.00 0.00 0.00 71 1015.8
20260902073030 83 333 0.0 0.0 0.00 0.00 0.00 70 1015.8
20260902072545 83 333 0.0 0.0 0.00 0.00 0.00 70 1015.9
20260902072032 84 333 0.0 0.0 0.00 0.00 0.00 70 1015.9
20260902071605 84 333 0.0 0.0 0.00 0.00 0.00 69 1015.9
20260902071056 84 333 0.0 0.0 0.00 0.00 0.00 69 1015.9
20260902070543 84 333 0.0 0.0 0.00 0.00 0.00 69 1015.8
20260902070035 84 333 0.0 0.0 0.00 0.00 0.00 69 1015.9
20260902065546 84 333 0.0 0.0 0.00 0.00 0.00 68 1015.8
20260902065034 84 333 0.0 0.0 0.00 0.00 0.00 68 1015.8
20260902064540 84 333 0.0 0.0 0.00 0.00 0.00 68 1015.6
20260902064033 85 333 0.0 0.0 0.00 0.00 0.00 68 1015.6
20260902063607 85 333 0.0 0.0 0.00 0.00 0.00 68 1015.5
20260902063032 85 333 0.0 0.0 0.00 0.00 0.00 67 1015.5
20260902062544 85 333 0.0 0.0 0.00 0.00 0.00 67 1015.5
20260902062033 85 333 0.0 0.0 0.00 0.00 0.00 67 1015.6
20260902061544 85 333 0.0 0.0 0.00 0.00 0.00 67 1015.6
20260902061032 85 333 0.0 0.0 0.00 0.00 0.00 66 1015.5
20260902060527 85 333 0.0 0.0 0.00 0.00 0.00 66 1015.6
20260902060037 86 333 0.0 0.0 0.00 0.00 0.00 66 1015.6
20260902055537 86 333 0.0 0.0 0.00 0.00 0.00 66 1015.6
20260902055103 86 333 0.0 0.0 0.00 0.00 0.00 65 1015.6
20260902054538 86 333 0.0 0.0 0.00 0.00 0.00 65 1015.6
20260902054047 86 333 0.0 0.0 0.00 0.00 0.00 65 1015.6
20260902053535 86 333 0.0 0.0 0.00 0.00 0.00 64 1015.5
20260902053046 86 333 0.0 0.0 0.00 0.00 0.00 64 1015.4
20260902052533 87 333 0.0 0.0 0.00 0.00 0.00 64 1015.5
20260902052108 87 331 0.0 0.0 0.00 0.00 0.00 63 1015.5
20260902051538 87 332 0.0 0.0 0.00 0.00 0.00 63 1015.5
20260902051045 87 333 0.0 0.0 0.00 0.00 0.00 62 1015.5
20260902050534 87 333 0.0 0.0 0.00 0.00 0.00 62 1015.5
20260902050044 87 333 0.0 0.0 0.00 0.00 0.00 62 1015.5
20260902045554 87 333 0.0 0.0 0.00 0.00 0.00 61 1015.4
20260902045100 87 333 0.0 0.0 0.00 0.00 0.00 61 1015.4
20260902044529 87 332 0.0 0.0 0.00 0.00 0.00 60 1015.5
20260902044045 88 332 0.0 0.0 0.00 0.00 0.00 59 1015.5
20260902043531 88 333 0.0 0.0 0.00 0.00 0.00 59 1015.5
20260902043044 88 333 0.0 0.0 0.00 0.00 0.00 58 1015.4
20260902042536 88 332 0.0 0.0 0.00 0.00 0.00 57 1015.5
20260902042046 88 332 0.0 0.0 0.00 0.00 0.00 57 1015.4
20260902041536 88 333 0.0 0.0 0.00 0.00 0.00 57 1015.3
20260902041047 88 333 0.0 0.0 0.00 0.00 0.00 57 1015.3
20260902040535 89 332 0.0 0.0 0.00 0.00 0.00 57 1015.2
20260902040041 89 332 0.0 0.0 0.00 0.00 0.00 57 1015.2
20260902035541 89 332 0.0 0.0 0.00 0.00 0.00 57 1015.1
20260902035027 89 332 0.0 0.0 0.00 0.00 0.00 57 1015.1
20260902034602 89 333 0.0 0.0 0.00 0.00 0.00 57 1015.1
20260902034048 89 332 0.0 0.0 0.00 0.00 0.00 56 1015.1
20260902033537 89 333 0.0 0.0 0.00 0.00 0.00 56 1015.1
20260902033046 89 332 0.0 0.0 0.00 0.00 0.00 56 1015.1
20260902032531 89 332 0.0 0.0 0.00 0.00 0.00 56 1015.0
20260902032045 89 332 0.0 0.0 0.00 0.00 0.00 56 1014.9
20260902031536 90 332 0.0 0.0 0.00 0.00 0.00 55 1014.9
20260902031109 90 332 0.0 0.0 0.00 0.00 0.00 55 1014.9